Zurück zum Katalog

COSMOS 1528

AktivMilitärLEO
NORAD 14617·PAYLOAD·🇷🇺 Russia

Gestartet Jan 5, 1984 von Plesetsk Cosmodrome

Loading…

Nächste Überflüge (nächste 24 Stunden)

TLE

AktuellSource: Space-Track

Epoche: Sep 14, 2026, 09:47 UTC

1 14617U 84001G   26257.40816159 -.00000024  00000-0 -54124-4 0  9996
2 14617  74.0058 228.7333 0010896 294.3576 140.5909 12.49039583946565

Verfolge COSMOS 1528 in Echtzeit mit AllMySat

Download on the App Store